Regional Weather Roundup
Issued by NWS

Home | Current Version | Previous Version | Graphics & Text | Print | Product List | Glossary On
Versions: 1 2 3 4 5 6 7 8 9 10 11 12 13 14 15 16 17 18 19 20 21 22 23 24 25 26 27 28 29 30 31 32 33 34 35 36 37 38 39 40 41 42 43 44 45 46 47 48 49 50
576
ASUS44 KLIX 170101
RWRLA
LOUISIANA WEATHER ROUNDUP
NATIONAL WEATHER SERVICE NEW ORLEANS LA
800 PM CDT WED APR 16 2014

NOTE: "FAIR" INDICATES FEW OR NO CLOUDS BELOW 12,000 FEET WITH NO
      SIGNIFICANT WEATHER AND/OR OBSTRUCTIONS TO VISIBILITY.
      SKY/WX - SKY CONDITION AND SIGNIFICANT WEATHER.
      TMP - AIR TEMPERATURE.    DP   - DEWPOINT TEMPERATURE.
      RH  - RELATIVE HUMIDITY.  PRES - PRESSURE.
      HX  - HEAT INDEX.         WCI  - WIND CHILL INDEX.

*  THESE STATIONS ARE NOT NWS OR FAA STATIONS AND ARE NOT UNDER
   NWS QUALITY CONTROL.

LAZ040-048-061>063-065-066-069-170200-
SOUTHEAST LOUISIANA

CITY           SKY/WX    TMP DP  RH WIND       PRES   REMARKS
N.O. AUDUBON   NOT AVBL
N.O. INTL ARPT PTCLDY    57  41  55 SE6       30.13R
N.O. LAKEFRONT PTCLDY    57  43  59 SE9       30.13R
N.O. DOWNTOWN* FAIR      57  41  54 SE7       30.13S
SLIDELL        PTCLDY    53  42  66 CALM      30.13R
BATON ROUGE    MOCLDY    59  41  51 E10       30.10S
BOOTHVILLE     CLOUDY    57  47  69 E10       30.13F
BELLE CHASSE   PTCLDY    55  43  63 E7        30.12S
BOGALUSA*        N/A     56  47  71 SE7       30.13S
GALLIANO*      NOT AVBL
NEW ROADS*     NOT AVBL
GONZALES*      FAIR      57  46  66 CALM      30.11S
HAMMOND*       NOT AVBL
HOUMA*         NOT AVBL
PORT FOURCHON* CLOUDY    59  46  63 E9G15     30.13R

$$

LAZ041-044-053-054-170200-
SOUTHWEST LOUISIANA

CITY           SKY/WX    TMP DP  RH WIND       PRES   REMARKS
LAKE CHARLES   MOCLDY    58  48  69 S5        30.07S
LAFAYETTE      PTCLDY    59  48  67 S3        30.09S
PATTERSON      CLEAR     57  46  67 SE7       30.13S
SALT POINT       N/A     62  49  62 SE7       30.08F
NEW IBERIA     CLEAR     58  47  66 S5        30.10S
CHENAULT AIRPK CLEAR     57  48  72 SE10      30.08S

$$

LAZ027-028-170200-
CENTRAL LOUISIANA

CITY           SKY/WX    TMP DP  RH WIND       PRES   REMARKS
FORT POLK      CLEAR     55  42  61 S3        30.07R
ALEXANDRIA INT PTCLDY    57  41  55 SE3       30.06S
ALEXANDRIA     MOCLDY    54  43  66 CALM      30.08S

$$

LAZ001-002-170200-
NORTHWEST LOUISIANA

CITY           SKY/WX    TMP DP  RH WIND       PRES   REMARKS
SHREVEPORT     MOCLDY    58  37  45 SE8       30.04S
BARKSDALE AFB  NOT AVBL
DTN SHREVEPORT PTCLDY    57  36  45 SE7       30.04F

$$

LAZ014-016-170200-
NORTHEAST LOUISIANA

CITY           SKY/WX    TMP DP  RH WIND       PRES   REMARKS
MONROE         PTCLDY    55  38  52 CALM      30.10S
TALLULAH       MOCLDY    59  40  49 NE5       30.10F

$$




USA.gov is the U.S. government's official web portal to all federal, state and local government web resources and services.